Location: ????????
(55.8351°N, 38.7040°E)
Time: 19:46:49
(UTC+00:00)

COSMOS 2428 - Pass Details

Date: 14 April 2024
Orbit: 845 x 855 km, 70.9° (Epoch: 18 May)

Event Time Altitude Azimuth Distance (km) Brightness Sun altitude
Exits shadow 01:22:43 10° 237° (WSW) 2,460 4.4 -8.4°
Maximum altitude 01:28:14 53° 314° (NW) 1,046 3.1 -7.7°
Drops below altitude 10° 01:33:48 10° 31° (NNE) 2,484 6.2 -7.0°
Sets 01:36:20 0° 36° (NE) 3,421 7.2 -6.7°
